Date String (YYYY-MM-DD hh:mm:ss) UTC,Instrument flags,absolute air pressure of the measurement (hPa),sample flow rate (lpm),inlet stack bypass flow (lpm),air temperature of the measurement (°C),ambient temperature measured by the external sensor (°C),aerosol sample conditioner tube jacket temperature (°C),OPC LED temperature (°C),internal box temperature (°C),relative humidity of the measurement (%),span deviation,mass concentration of particles derived from Lorenz-Mie calculation of OPC scattering (μg/m³),mass concentration of particles derived from Lorenz-Mie calculation of OPC scattering (μg/m³),mass concentration of particles derived from Lorenz-Mie calculation of OPC scattering (μg/m³)
DateTimeUTC,F1_M11,P_M11,Q1_M11,Q2_M11,T1_M11,T2_M11,T3_M11,T4_M11,T5_M11,U1_M11,ZSPAN_M11,X2_M11,X0_M11,X1_M11
2023-09-08 16:00:00,SystemResetWarning,0836.9,4.99,000.00,028.2,025.9,000.0,036.5,029.6,20.5,0002.1,0004.23,0011.86,0003.34
2023-09-08 16:01:00,SystemResetWarning,0836.8,5.00,000.00,028.2,026.2,000.0,036.5,029.6,21.1,0002.0,0004.25,0012.41,0003.35
2023-09-08 16:02:00,SystemResetWarning,0836.8,5.01,000.00,028.2,026.5,000.0,036.5,029.7,21.4,0002.3,0004.31,0012.42,0003.35
2023-09-08 16:03:00,SystemResetWarning,0836.8,5.00,000.00,028.2,026.7,000.0,036.5,029.8,21.7,0002.0,0004.34,0012.08,0003.35
2023-09-08 16:04:00,SystemResetWarning,0836.8,5.01,000.00,028.2,026.9,000.0,036.5,029.8,21.6,0001.8,0004.38,0012.06,0003.36
2023-09-08 16:05:00,SystemResetWarning,0836.8,4.99,000.00,028.3,027.1,000.0,036.5,029.9,21.3,0002.0,0004.36,0012.16,0003.35
2023-09-08 16:06:00,SystemResetWarning,0836.7,4.99,000.00,028.3,027.2,000.0,036.6,029.9,21.2,0002.3,0004.33,0012.39,0003.35
2023-09-08 16:07:00,SystemResetWarning,0836.8,5.00,000.00,028.3,027.4,000.0,036.6,030.0,21.1,0001.9,0004.32,0012.45,0003.35
2023-09-08 16:08:00,SystemResetWarning,0836.8,5.01,000.00,028.4,027.3,000.0,036.6,030.0,21.3,0001.2,0004.27,0012.64,0003.34
2023-09-08 16:09:00,SystemResetWarning,0836.8,4.98,000.00,028.4,026.1,000.0,036.6,029.8,21.4,0001.0,0004.22,0013.36,0003.32
2023-09-08 16:10:00,SystemResetWarning,0836.8,5.01,000.00,028.3,024.7,000.0,036.5,029.6,21.5,0001.0,0004.21,0012.94,0003.31
2023-09-08 16:11:00,SystemResetWarning,0836.8,5.01,000.00,028.3,024.8,000.0,036.4,029.6,21.5,0000.9,0004.22,0013.28,0003.30
2023-09-08 16:12:00,SystemResetWarning,0836.8,5.00,000.00,028.2,025.1,000.0,036.4,029.5,21.6,0001.5,0004.24,0013.59,0003.29
2023-09-08 16:13:00,SystemResetWarning,0836.8,4.99,000.00,028.1,025.5,000.0,036.5,029.5,21.9,0000.7,0004.24,0013.08,0003.29
2023-09-08 16:14:00,SystemResetWarning,0836.8,5.00,000.00,028.1,025.8,000.0,036.5,029.5,21.6,0001.2,0004.20,0012.85,0003.29
2023-09-08 16:15:00,SystemResetWarning,0836.8,5.01,000.00,028.1,026.1,000.0,036.5,029.6,21.5,0001.4,0004.18,0013.24,0003.28
2023-09-08 16:16:00,SystemResetWarning,0836.8,5.01,000.00,028.1,026.4,000.0,036.5,029.7,21.5,0001.3,0004.19,0014.08,0003.29
2023-09-08 16:17:00,SystemResetWarning,0836.8,5.00,000.00,028.2,026.7,000.0,036.5,029.7,21.6,0001.0,0004.27,0013.88,0003.30
2023-09-08 16:18:00,SystemResetWarning,0836.7,5.00,000.00,028.2,026.9,000.0,036.5,029.8,21.8,0001.5,0004.29,0013.90,0003.30
2023-09-08 16:19:00,SystemResetWarning,0836.8,5.00,000.00,028.2,027.1,000.0,036.6,029.9,21.4,0001.8,0004.28,0013.43,0003.30
2023-09-08 16:20:00,SystemResetWarning,0836.8,5.00,000.00,028.3,027.2,000.0,036.6,029.9,21.4,0002.1,0004.29,0013.11,0003.31
2023-09-08 16:21:00,SystemResetWarning,0836.8,5.00,000.00,028.3,027.3,000.0,036.6,030.0,21.2,0002.0,0004.33,0012.93,0003.32
2023-09-08 16:22:00,SystemResetWarning,0836.8,4.99,000.00,028.4,027.4,000.0,036.6,030.0,21.1,0002.2,0004.32,0012.15,0003.33
2023-09-08 16:23:00,SystemResetWarning,0836.8,4.99,000.00,028.4,026.7,000.0,036.6,029.9,21.2,0001.9,0004.31,0011.56,0003.34
2023-09-08 16:24:00,SystemResetWarning,0836.8,5.00,000.00,028.3,025.1,000.0,036.5,029.6,21.0,0001.9,0004.31,0013.39,0003.34
2023-09-08 16:25:00,SystemResetWarning,0836.8,5.01,000.00,028.3,024.7,000.0,036.4,029.6,21.3,0001.7,0004.31,0013.95,0003.34
2023-09-08 16:26:00,SystemResetWarning,0836.8,5.00,000.00,028.2,025.0,000.0,036.4,029.6,21.5,0001.3,0004.32,0014.15,0003.36
2023-09-08 16:27:00,SystemResetWarning,0836.8,5.00,000.00,028.1,025.3,000.0,036.4,029.5,21.3,0001.3,0004.33,0013.57,0003.37
2023-09-08 16:28:00,SystemResetWarning,0836.8,5.00,000.00,028.1,025.7,000.0,036.5,029.5,21.2,0001.0,0004.30,0013.58,0003.41
2023-09-08 16:29:00,SystemResetWarning,0836.8,5.00,000.00,028.1,026.0,000.0,036.5,029.6,21.3,0000.9,0004.28,0013.49,0003.45
2023-09-08 16:30:00,SystemResetWarning,0836.8,5.00,000.00,028.1,026.3,000.0,036.5,029.7,21.5,0001.4,0004.36,0013.54,0003.52
2023-09-08 16:31:00,SystemResetWarning,0836.8,5.00,000.00,028.2,026.6,000.0,036.5,029.7,21.4,0001.7,0004.40,0013.16,0003.56
2023-09-08 16:32:00,SystemResetWarning,0836.8,5.01,000.00,028.2,026.8,000.0,036.5,029.8,21.0,0001.7,0004.38,0013.22,0003.59
2023-09-08 16:33:00,SystemResetWarning,0836.7,5.00,000.00,028.2,027.0,000.0,036.5,029.9,21.0,0002.0,0004.37,0013.39,0003.63
2023-09-08 16:34:00,SystemResetWarning,0836.8,5.00,000.00,028.3,027.2,000.0,036.6,029.9,20.9,0002.4,0004.39,0012.84,0003.68
2023-09-08 16:35:00,SystemResetWarning,0836.8,4.99,000.00,028.3,027.3,000.0,036.6,030.0,20.7,0002.4,0004.39,0012.01,0003.72
2023-09-08 16:36:00,SystemResetWarning,0836.8,4.99,000.00,028.4,027.1,000.0,036.6,030.0,20.9,0002.6,0004.44,0012.16,0003.74
2023-09-08 16:37:00,SystemResetWarning,0836.8,4.99,000.00,028.3,025.5,000.0,036.5,029.7,20.6,0002.6,0004.48,0012.13,0003.76
2023-09-08 16:38:00,SystemResetWarning,0836.8,5.02,000.00,028.2,024.6,000.0,036.4,029.5,20.8,0002.8,0004.46,0012.04,0003.76
2023-09-08 16:39:00,SystemResetWarning,0836.7,5.01,000.00,028.2,024.8,000.0,036.4,029.5,21.1,0002.2,0004.43,0012.23,0003.73
2023-09-08 16:40:00,SystemResetWarning,0836.8,4.99,000.00,028.1,025.2,000.0,036.4,029.4,21.1,0002.4,0004.41,0011.72,0003.71
2023-09-08 16:41:00,SystemResetWarning,0836.7,5.00,000.00,028.1,025.5,000.0,036.4,029.5,20.9,0002.5,0004.39,0011.73,0003.68
2023-09-08 16:42:00,SystemResetWarning,0836.7,5.00,000.00,028.1,025.9,000.0,036.5,029.5,21.0,0001.9,0004.38,0011.69,0003.68
2023-09-08 16:43:00,SystemResetWarning,0836.7,5.00,000.00,028.1,026.2,000.0,036.5,029.6,21.3,0001.8,0004.42,0011.66,0003.67
2023-09-08 16:44:00,SystemResetWarning,0836.8,5.00,000.00,028.1,026.5,000.0,036.5,029.7,21.4,0001.6,0004.41,0011.30,0003.66
2023-09-08 16:45:00,SystemResetWarning,0836.8,5.01,000.00,028.2,026.7,000.0,036.5,029.7,21.1,0001.7,0004.43,0011.35,0003.65
2023-09-08 16:46:00,SystemResetWarning,0836.8,5.00,000.00,028.2,026.9,000.0,036.5,029.8,21.2,0001.4,0004.43,0010.52,0003.64
2023-09-08 16:47:00,SystemResetWarning,0836.8,4.99,000.00,028.2,027.1,000.0,036.5,029.9,21.0,0001.0,0004.41,0009.89,0003.63
2023-09-08 16:48:00,SystemResetWarning,0836.8,4.99,000.00,028.3,027.1,000.0,036.5,029.9,21.1,0000.9,0004.40,0009.41,0003.63
2023-09-08 16:49:00,SystemResetWarning,0836.7,4.99,000.00,028.3,025.9,000.0,036.5,029.7,21.1,0000.5,0004.42,0009.56,0003.63
2023-09-08 16:50:00,SystemResetWarning,0836.7,5.00,000.00,028.2,024.7,000.0,036.4,029.5,21.3,0001.0,0004.44,0009.49,0003.66
2023-09-08 16:51:00,SystemResetWarning,0836.6,5.00,000.00,028.2,024.7,000.0,036.3,029.6,21.4,0000.9,0004.52,0009.91,0003.67
2023-09-08 16:52:00,SystemResetWarning,0836.6,5.02,000.00,028.1,025.1,000.0,036.4,029.5,21.6,0000.7,0004.52,0010.33,0003.66
2023-09-08 16:53:00,SystemResetWarning,0836.6,5.00,000.00,028.1,025.4,000.0,036.4,029.5,21.5,0001.2,0004.58,0011.53,0003.64
2023-09-08 16:54:00,SystemResetWarning,0836.6,5.00,000.00,028.1,025.8,000.0,036.4,029.5,21.4,0001.4,0004.62,0012.41,0003.64
2023-09-08 16:55:00,SystemResetWarning,0836.6,5.00,000.00,028.1,026.1,000.0,036.4,029.6,21.4,0000.9,0004.64,0012.91,0003.63
2023-09-08 16:56:00,SystemResetWarning,0836.6,5.00,000.00,028.1,026.4,000.0,036.4,029.6,21.3,0000.7,0004.65,0013.52,0003.62
2023-09-08 16:57:00,SystemResetWarning,0836.6,5.00,000.00,028.1,026.6,000.0,036.4,029.7,21.5,0000.7,0004.66,0013.91,0003.61
2023-09-08 16:58:00,SystemResetWarning,0836.6,5.00,000.00,028.2,026.9,000.0,036.5,029.8,21.4,0000.8,0004.66,0014.00,0003.61
2023-09-08 16:59:00,SystemResetWarning,0836.6,5.00,000.00,028.2,027.0,000.0,036.5,029.8,21.1,0000.6,0004.68,0014.11,0003.61
